Погода в Артезиан

Россия / Республика Калмыкия     44°56′48″N   46°40′11″E
темп.,
°C
ветер,
м/с
пор.,
м/с
влажн.,
%
обл.,
%
осадки,
мм/ч
давл.,
гПа
погр.,
м
2 июля, сб
сб200:00+22ююз6114570 0.0 1009415
03:00+21ююз47548 0.0 1007152
06:00+22сз46550 0.0 1007288
09:00+23ссв1010390 0.0 10091054
12:00+26сз69300 0.0 10091976
15:00+27зсз1013220 0.0 10082631
18:00+25сз1011252 0.0 10092541
21:00+21зсз610352 0.0 10101374
3 июля, вс
вс300:00+21з11163846 0.0 10092040
03:00+18зсз101659100 0.0 10091605
06:00+18сз1015632 0.1 10101400
09:00+20сз11155525 0.1 10111463
12:00+22сз11135099 0.1 10111772
15:00+27сз10132839 0.1 10092996
18:00+26сз11143376 0.0 10102850
21:00+24зсз711380 0.0 1011455
4 июля, пн
пн400:00+23зсз610402 0.0 1011447
03:00+21зсз48452 0.0 1012166
06:00+21сз59450 0.0 1013416
09:00+25сз67370 0.0 10131704
12:00+28сз66282 0.0 10132537
15:00+31сз582310 0.0 10113300
18:00+31зсз782448 0.0 10103237
21:00+28с6834100 0.0 1011638
5 июля, вт
вт500:00+25сз35429 0.0 1011301
03:00+23с46510 0.1 1012239
06:00+23с575594 0.0 1013507
09:00+25с563932 0.0 10141421
12:00+28ссз67240 0.0 10142470
15:00+30ссз77243 0.0 10132851
18:00+29с66220 0.0 10132710
21:00+26ссв35283 0.0 1015137
6 июля, ср
ср600:00+23ю45480 0.0 1015128
03:00+22ссв34430 0.0 101661
06:00+22св45370 0.0 1017193
09:00+27св54290 0.0 10172017
12:00+28в64260 0.0 10172384
15:00+29вюв55240 0.0 10162340
18:00+26юв75330 0.0 1017767
21:00+23ююв57460 0.0 1018470